User: anonymous   Login
Location: Unspecified
(0.0000°N, 0.0000°E)
Time: 03:31:26
(UTC+00:00)
Language:

Oscar 11 - Orbit

View from above orbital plane
View from above orbital plane
View from above satellite
View from above satellite

Ground track
Ground track

The orbit data is extracted from the following two-line orbital elements,

1 14781U 84021B   18016.11928154  .00000064  00000-0  14157-4 0  9995
2 14781  97.6701  58.6502 0007655 213.5386 146.5344 14.82973688821903
Epoch (UTC): 16 January 2018 02:51:45
Eccentricity: 0.0007655
inclination: 97.6701°
perigee height: 614 km
apogee height: 625 km
right ascension of ascending node: 58.6502°
argument of perigee: 213.5386°
revolutions per day: 14.82973688
mean anomaly at epoch: 146.5344°
orbit number at epoch: 82190

The dashed part of the orbit path shows where the satellite is in the earth's shadow,  

DLR